Hourly Data Report for September 01, 2020

LOURDES DE BLANC SABLON A
QUEBEC
Current Station Operator: NAVCAN

51°26'31.000" N
57°11'10.000" W
37.20 m
7040815
71808
YBX

Download Data

Hourly Data (September 2020)
Hourly Data Report for September 1, 2020
TIME Temp Definition
°C
Dew Point Definition
°C
Rel Hum Definition
%
Wind Dir Definition
10's deg

Wind Spd Definition
km/h
Visibility Definition
km
Stn Press Definition
kPa
Hmdx Definition


Wind Chill Definition


Weather Definition


00:00 7.8 5.7 87 33 4 24.1 101.12     LegendNANA
01:00 6.8 5.4 91 36 3 24.1 101.12     LegendNANA
02:00 6.7 5.7 93 29 12 24.1 101.18     Clear
03:00 7.0 6.2 94 30 16 24.1 101.23     LegendNANA
04:00 7.0 6.0 93 29 10 24.1 101.26     LegendNANA
05:00 6.5 5.6 94 31 13 24.1 101.31     Mainly Clear
06:00 7.5 6.0 90 31 13 24.1 101.35     LegendNANA
07:00 9.6 7.3 86 30 14 24.1 101.39     LegendNANA
08:00 11.1 7.4 78 29 20 24.1 101.39     Clear
09:00 13.1 7.7 69 31 16 24.1 101.43     LegendNANA
10:00 14.2 7.4 63 28 16 24.1 101.47     LegendNANA
11:00 14.7 7.8 63 23 21 24.1 101.49     Clear
12:00 16.1 7.5 57 22 18 24.1 101.51     LegendNANA
13:00 16.9 9.7 62 24 24 24.1 101.50     LegendNANA
14:00 17.1 11.2 68 23 27 24.1 101.50     Clear
15:00 16.9 9.9 63 23 26 24.1 101.52     LegendNANA
16:00 16.6 11.0 69 23 27 24.1 101.52     LegendNANA
17:00 16.1 11.3 73 23 22 24.1 101.54     Clear
18:00 15.0 10.9 76 24 29 24.1 101.58     LegendNANA
19:00 14.6 10.8 78 25 22 24.1 101.64     LegendNANA
20:00 13.8 11.3 85 28 13 24.1 101.69     Mainly Clear
21:00 12.6 11.1 90 32 6 24.1 101.71     LegendNANA
22:00 11.3 10.5 95 29 5 24.1 101.72     LegendNANA
23:00 11.1 10.1 93 28 5 24.1 101.72     Clear

Notes on Data Quality.

Legend

  • E = Estimated
  • M = Missing
  • NA = Not Available*
  • [empty] = Indicates an unobserved value
Date modified: